Погода в Корлики

Погода в Корлики : погода сейчас, прогноз погоды и архив. Всё, что Вы хотите узнать о погоде в Корлики!

Поиск расширенной информации на нашем сайте:

Другие новости

Новости СМИ2

Главная страница сайта

Новости сайта

03.07.2017

Напоминаем, что на нашем специализированном сайте Метеоцентр.Азия вы можете получить высокодетализированные автоматические прогнозы погоды по пунктам России, СНГ и мира в авиационном формате (включающие направление и скорость ветра, видимость, явления погоды, количество и форму облачности, нижнюю и верхнюю границу облачности).


Погода в Корлики - сегодня

Время (UTC), дата Ветер
(°,м/с) 
Видим.   Явления Облачность Т
(°С)
Тd
(°С)
f(%) Тe
(°С)
Pmin
(гПа)
dP
(гПа)
Po
(мм)
O2
(г/м3)
Тmin Tmax R s Состояние
почвы
15 19.08.17 190 (Ю) 10 км    3/0 средняя 
[Ac trans]
+11.9 +8.3 79 +13  1015.7  -0.2  755  290    +17.4  0.0     
18 19.08.17 210 (ЮЗ) 10 км    10/3 600 м верхняя 
[Sc|Cs]
+10.6 +8.1 85 +11  1015.6  -0.1  755  291           
21 19.08.17 200 (Ю) 10 км    1/0 верхняя 
[Ci fib]
+8.6 +7.4 92 +10  1015  -0.6  754  293           
00 20.08.17 200 (Ю) 10 км    10/10 600 м кучево-дожд. 
[Cb cap]
+8.9 +7.8 93 +10  1015.2  0.2  755  293           
03 20.08.17 240 (ЮЗ) 10 км  {ливн. осадки}  10/10 600 м 
[Sc]
+12 +9.8 86 +13  1015.3  0.1  755  289  +8.1    0.0     
06 20.08.17 240 (ЮЗ) н/о    н/о 
+11.6 +11 96 +15  1014.8  0.1  755  290           
09 20.08.17 310 (СЗ) 10 км  в посл. час ливневой дождь  10/10 600 м кучево-дожд. 
[Cb cap]
+12.3 +10.7 90 +14  1016.5  0.7  755  289           
12 20.08.17 330 (СЗ) н/о    н/о 
+13.5 +5.6 59 +14  1016.5  756  289           
15 20.08.17 360 (С) 10 км    1/0 верхняя 
[Ci fib]
+6 +4.1 88 +7  1019  1.3  757  298    +15.1     
18 20.08.17 тихо ()   10 км    ясно 
+1.3 +0.7 96 +1  1019.1  0.8  758  304           
21 20.08.17 тихо ()   10 км    3/0 верхняя 
[Cs]
-0.2 -0.6 97 -0  1020.3  0.3  758  306           
00 21.08.17 190 (Ю) 10 км    9/0 средняя, верхняя 
[Ac trans|Cc]
+1.6 +1.2 97 +2  1021  0.7  759  304           
03 21.08.17 170 (Ю) 10 км    3/0 верхняя 
[Ci fib]
+10.6 +5.4 70 +11  1020.9  0.2  759  293  -0.3         
06 21.08.17 200 (Ю) н/о    н/о 
+14.5 +4.8 52 +15  1019.1  -0.9  758  289           
09 21.08.17 190 (Ю) 10 км    10/0 средняя, верхняя 
[Ac trans|Cs]
+16.4 +4.1 44 +17  1017.8  -2  757  287           
12 21.08.17 150 (ЮВ) 10 км    10/0 средняя 
[As op]
+15.8 +6.4 54 +17  1016.2  -1.6  755  287           
15 21.08.17 190 (Ю) 4000 м  слаб. ливневой дождь  10/6 600 м кучево-дожд., средняя 
[Cb cap|Ac As]
+13.8 +8.9 72 +14  1015.3  -0.9  755  288    +16.4  0.0     
18 21.08.17 180 (Ю) 4000 м  слаб. ливневой дождь  10/10 600 м кучево-дожд. 
[Cb cap]
+12.7 +11.9 95 +17  1013.1  -2.2  753  288           
21 21.08.17 200 (Ю) 4000 м  слаб. ливневой дождь  10/10 600 м кучево-дожд. 
[Cb cap]
+13.6 +12.8 95 +19  1011.4  -1.7  752  286           
00 22.08.17 210 (ЮЗ) 10 км  в посл. час ливневой дождь  10/10 600 м 
[Sc]
+14.5 +13.8 96 +22  1010.1  -1.3  751  284           
03 22.08.17 240 (ЮЗ) 4000 м  слаб. ливневой дождь  10/10 600 м кучево-дожд. 
[Cb cap]
+15.3 +14.8 97 +24  1009.9  -0.2  751  283  +12.4    18     
06 22.08.17 330 (СЗ) н/о    н/о 
+17.7 +11.7 68 +22  1010.4  1.6  752  282           
09 22.08.17 280 (З) 10 км    5/5 600 м 
[Cu Sc]
+20.2 +10 52 +21  1011.9  0.7  752  280           
12 22.08.17 300 (СЗ) 2{12}  н/о    н/о 
+17.7 +12.4 71 +23  1012.7  1.6  754  283           
15 22.08.17 300 (СЗ) 10 км    1/1 600 м 
[Sc diur, vesp]
+14.2 +8.9 70 +15  1015.4  1.7  755  288    +21.6     
Время (UTC), дата Ветер
(°,м/с) 
Видим.   Явления Облачность Т
(°С)
Тd
(°С)
f(%) Тe
(°С)
Pmin
(гПа)
dP
(гПа)
Po
(мм)
O2
(г/м3)
Тmin Tmax R s Состояние
почвы

Для получения пояснительной информации подведите курсор к названию столбца.

ПОГОДА в Корлики - архив

Всё, что Вы хотите узнать о погоде в Корлики - удобно и подробно!

Выберите нужную дату (начиная с 1 января 2015* года) и нажмите кнопку "Найти".
Будут отображены архивные сводки погоды по пункту Корлики, начиная с указанной даты.


Отображать данные в формате CSV (для использования в таблицах Excel)


Внимание! Наш архив погоды предназначен исключительно для личного некоммерческого использования в познавательных целях. Если Вам необходимы официальные справки о состоянии погоды (для производственных, юридических, коммерческих и т.п. целей), обращайтесь в органы Росгидромета.

*Примечание: данная дата относится к архиву по метеостанциям СССР (Россия, СНГ, Балтия).
Архив по метеостанциям Зарубежной Европы и Азии (кроме Китая) хранится 10 дней, по другим регионам земного шара (Китай, Африка, Америка, Австралия, Океания) - 1 день.

Корлики - район местоположения метеостанции


Название, широта, долгота, высота метеостанции:
Корлики 61.5°ш. 82.4°д. 80 м над ур. моря [Российская Федерация]

Дополнительная информация

В oтличие oт бoльшинства пoгoдных сайтoв мы публикуем пoдрoбную метеoинфoрмацию в детальнoм прoфессиoнальнoм фoрмате.

Характеристики температуры и влажнoсти вoздуха измеряются на высoте 2 м в тени вдали oт зданий и деревьев.
Скoрoсть ветра измеряется на высoте 10 м (на урoвне рoста челoвека скoрoсть ветра ниже в 1.5-2 раза). Если метеoстанция нахoдится в гoрoде или в лесу, тo скoрoсть ветра занижена на 2-4 м/с пo сравнению с oткрытым местoм. Скoрoсть ветра над акватoриями крупных рек и oзёр, а также на вершинах хoлмoв на 2-5 м/с выше, чем в oбычных услoвиях.
Атмoсфернoе давление в разных тoчках местнoсти мoжет значительнo oтличаться oт давления на метеoстанции, в зависимoсти oт услoвий рельефа (при пoдъёме на 10 м давление пoнижается примернo на 1 мм рт.ст.).